Find Starlink 38266

NORAD ID: 100255 Int'l Des: 2026-181 Owner: SPXS Country: US Constellation: starlink operational

Current View

Loading 3D Globe...

About Starlink 38266

Starlink 38266 (NORAD 100255) is a starlink constellation satellite launched Aug 8, 2026 by SPXS of US. with a mass of 575.00 kg.

Upcoming Passes

Passes for default location (London). Set your location on the main map for personalized predictions.

Altitude History

Loading altitude history...

Two-Line Element Set

1 A0255U 26181K 26247.85854253 .00164719 00000-0 10837-2 0 9990
2 A0255 97.2846 290.6137 0001021 102.4609 257.6770 15.75197468 5499
Epoch: Sep 4, 2026 • Age: 19 hours

Current Status

Altitude 356.0 km
Apogee / Perigee N/A
Velocity 7.70 km/s
Sub-Earth Point 79.23°N, 36.06°E
Launch Date Aug 8, 2026
Age 27 days
Type internet

Technical Details

Classification Payload
Mass 575.00 kg
Dry Mass 530.00 kg
Total Mass 575.00 kg
Length 0.30 m
Diameter 4.10 m
Span 29.00 m
Shape Box + pan
Manufacturer SPXS
Bus Type Starlink V2MO
Phase Status In Orbit
Owner/State SPXS/US

Most Searched